Location: *
(45.9500°N, 9.0833°E)
Time: 17:12:32
(UTC+00:00)

H-2A R/B - Pass Details

Date: 03 March 2021
Orbit: 732 x 837 km, 98.2° (Epoch: 14 April)

Event Time Altitude Azimuth Distance (km) Brightness Sun altitude
Rises 18:00:09 0° 165° (SSE) 3,364 5.2 -9.0°
Reaches altitude 10° 18:02:29 10° 166° (SSE) 2,440 4.5 -9.4°
Maximum altitude 18:07:56 87° 255° (WSW) 846 2.2 -10.3°
Drops below altitude 10° 18:13:26 10° 346° (NNW) 2,455 4.8 -11.3°
Sets 18:15:47 0° 347° (NNW) 3,387 5.6 -11.7°
